Volver al catálogo

STARLINK-38158

ActivoComunicacionesSSO
NORAD 100105·PAYLOAD·🇺🇸 United States

Lanzado Jul 21, 2026 desde Vandenberg Space Force Base

Loading…

Próximos Pases (próximas 24 horas)

TLE

ActualizadoSource: Space-Track

Época: Sep 14, 2026, 12:28 UTC

1 A0105U 26166E   26257.51961354  .00214200  00000-0  13964-2 0  9997
2 A0105  97.2838 275.5992 0001077  70.8240 289.3142 15.75270534  8668

Sigue STARLINK-38158 en tiempo real con AllMySat

Download on the App Store